Year,Month,Day,Hour,Minute,Value (Times are PST for windgust in km/hr)
2007,01,02,00,00,4.80
2007,01,02,00,01,8.10
2007,01,02,00,02,8.10
2007,01,02,00,03,6.40
2007,01,02,00,04,4.80
2007,01,02,00,05,6.40
2007,01,02,00,06,4.80
2007,01,02,00,07,6.40
2007,01,02,00,08,4.80
2007,01,02,00,09,3.20
2007,01,02,00,10,6.40
2007,01,02,00,11,6.40
2007,01,02,00,12,9.60
2007,01,02,00,13,8.10
2007,01,02,00,14,4.80
2007,01,02,00,15,4.80
2007,01,02,00,16,4.80
2007,01,02,00,17,4.80
2007,01,02,00,18,4.80
2007,01,02,00,19,4.80
2007,01,02,00,20,6.40
2007,01,02,00,21,6.40
2007,01,02,00,22,6.40
2007,01,02,00,23,8.10
2007,01,02,00,24,4.80
2007,01,02,00,25,6.40
2007,01,02,00,26,4.80
2007,01,02,00,27,4.80
2007,01,02,00,28,1.60
2007,01,02,00,29,3.20
2007,01,02,00,30,3.20
2007,01,02,00,31,4.80
2007,01,02,00,32,4.80
2007,01,02,00,33,4.80
2007,01,02,00,34,8.10
2007,01,02,00,35,6.40
2007,01,02,00,36,4.80
2007,01,02,00,37,3.20
2007,01,02,00,38,3.20
2007,01,02,00,39,4.80
2007,01,02,00,40,6.40
2007,01,02,00,41,4.80
2007,01,02,00,42,3.20
2007,01,02,00,43,6.40
2007,01,02,00,44,6.40
2007,01,02,00,45,6.40
2007,01,02,00,46,3.20
2007,01,02,00,47,3.20
2007,01,02,00,48,3.20
2007,01,02,00,49,3.20
2007,01,02,00,50,3.20
2007,01,02,00,51,3.20
2007,01,02,00,52,3.20
2007,01,02,00,53,11.30
2007,01,02,00,54,8.10
2007,01,02,00,55,8.10
2007,01,02,00,56,6.40
2007,01,02,00,57,4.80
2007,01,02,00,58,8.10
2007,01,02,00,59,6.40
2007,01,02,01,00,8.10
2007,01,02,01,01,9.60
2007,01,02,01,02,8.10
2007,01,02,01,03,8.10
2007,01,02,01,04,4.80
2007,01,02,01,05,4.80
2007,01,02,01,06,8.10
2007,01,02,01,07,9.60
2007,01,02,01,08,6.40
2007,01,02,01,09,6.40
2007,01,02,01,10,6.40
2007,01,02,01,11,6.40
2007,01,02,01,12,9.60
2007,01,02,01,13,6.40
2007,01,02,01,14,3.20
2007,01,02,01,15,4.80
2007,01,02,01,16,6.40
2007,01,02,01,17,6.40
2007,01,02,01,18,6.40
2007,01,02,01,19,4.80
2007,01,02,01,20,4.80
2007,01,02,01,21,6.40
2007,01,02,01,22,4.80
2007,01,02,01,23,4.80
2007,01,02,01,24,4.80
2007,01,02,01,25,4.80
2007,01,02,01,26,6.40
2007,01,02,01,27,4.80
2007,01,02,01,28,3.20
2007,01,02,01,29,4.80
2007,01,02,01,30,3.20
2007,01,02,01,31,3.20
2007,01,02,01,32,3.20
2007,01,02,01,33,4.80
2007,01,02,01,34,4.80
2007,01,02,01,35,4.80
2007,01,02,01,36,6.40
2007,01,02,01,37,8.10
2007,01,02,01,38,6.40
2007,01,02,01,39,3.20
2007,01,02,01,40,4.80
2007,01,02,01,41,3.20
2007,01,02,01,42,3.20
2007,01,02,01,43,3.20
2007,01,02,01,44,3.20
2007,01,02,01,45,1.60
2007,01,02,01,46,0.00
2007,01,02,01,47,0.00
2007,01,02,01,48,0.00
2007,01,02,01,49,0.00
2007,01,02,01,50,0.00
2007,01,02,01,51,0.00
2007,01,02,01,52,0.00
2007,01,02,01,53,4.80
2007,01,02,01,54,3.20
2007,01,02,01,55,4.80
2007,01,02,01,56,3.20
2007,01,02,01,57,3.20
2007,01,02,01,58,3.20
2007,01,02,01,59,3.20
2007,01,02,02,00,3.20
2007,01,02,02,01,3.20
2007,01,02,02,02,3.20
2007,01,02,02,03,3.20
2007,01,02,02,04,1.60
2007,01,02,02,05,1.60
2007,01,02,02,06,3.20
2007,01,02,02,07,1.60
2007,01,02,02,08,4.80
2007,01,02,02,09,4.80
2007,01,02,02,10,4.80
2007,01,02,02,11,4.80
2007,01,02,02,12,4.80
2007,01,02,02,13,3.20
2007,01,02,02,14,3.20
2007,01,02,02,15,4.80
2007,01,02,02,16,4.80
2007,01,02,02,17,3.20
2007,01,02,02,18,3.20
2007,01,02,02,19,3.20
2007,01,02,02,20,4.80
2007,01,02,02,21,4.80
2007,01,02,02,22,4.80
2007,01,02,02,23,6.40
2007,01,02,02,24,4.80
2007,01,02,02,25,4.80
2007,01,02,02,26,8.10
2007,01,02,02,27,6.40
2007,01,02,02,28,8.10
2007,01,02,02,29,4.80
2007,01,02,02,30,6.40
2007,01,02,02,31,4.80
2007,01,02,02,32,6.40
2007,01,02,02,33,4.80
2007,01,02,02,34,4.80
2007,01,02,02,35,6.40
2007,01,02,02,36,8.10
2007,01,02,02,37,9.60
2007,01,02,02,38,6.40
2007,01,02,02,39,4.80
2007,01,02,02,40,3.20
2007,01,02,02,41,4.80
2007,01,02,02,42,4.80
2007,01,02,02,43,6.40
2007,01,02,02,44,4.80
2007,01,02,02,45,4.80
2007,01,02,02,46,4.80
2007,01,02,02,47,6.40
2007,01,02,02,48,6.40
2007,01,02,02,49,9.60
2007,01,02,02,50,4.80
2007,01,02,02,51,6.40
2007,01,02,02,52,6.40
2007,01,02,02,53,8.10
2007,01,02,02,54,4.80
2007,01,02,02,55,1.60
2007,01,02,02,56,4.80
2007,01,02,02,57,4.80
2007,01,02,02,58,6.40
2007,01,02,02,59,6.40
2007,01,02,03,00,8.10
2007,01,02,03,01,4.80
2007,01,02,03,02,3.20
2007,01,02,03,03,3.20
2007,01,02,03,04,4.80
2007,01,02,03,05,6.40
2007,01,02,03,06,8.10
2007,01,02,03,07,3.20
2007,01,02,03,08,6.40
2007,01,02,03,09,4.80
2007,01,02,03,10,3.20
2007,01,02,03,11,4.80
2007,01,02,03,12,3.20
2007,01,02,03,13,9.60
2007,01,02,03,14,3.20
2007,01,02,03,15,6.40
2007,01,02,03,16,6.40
2007,01,02,03,17,4.80
2007,01,02,03,18,4.80
2007,01,02,03,19,4.80
2007,01,02,03,20,6.40
2007,01,02,03,21,4.80
2007,01,02,03,22,4.80
2007,01,02,03,23,11.30
2007,01,02,03,24,9.60
2007,01,02,03,25,8.10
2007,01,02,03,26,4.80
2007,01,02,03,27,8.10
2007,01,02,03,28,11.30
2007,01,02,03,29,8.10
2007,01,02,03,30,6.40
2007,01,02,03,31,8.10
2007,01,02,03,32,8.10
2007,01,02,03,33,9.60
2007,01,02,03,34,8.10
2007,01,02,03,35,6.40
2007,01,02,03,36,8.10
2007,01,02,03,37,4.80
2007,01,02,03,38,3.20
2007,01,02,03,39,6.40
2007,01,02,03,40,14.50
2007,01,02,03,41,6.40
2007,01,02,03,42,9.60
2007,01,02,03,43,8.10
2007,01,02,03,44,8.10
2007,01,02,03,45,9.60
2007,01,02,03,46,8.10
2007,01,02,03,47,8.10
2007,01,02,03,48,4.80
2007,01,02,03,49,12.90
2007,01,02,03,50,9.60
2007,01,02,03,51,4.80
2007,01,02,03,52,4.80
2007,01,02,03,53,9.60
2007,01,02,03,54,9.60
2007,01,02,03,55,11.30
2007,01,02,03,56,4.80
2007,01,02,03,57,6.40
2007,01,02,03,58,6.40
2007,01,02,03,59,3.20
2007,01,02,04,00,6.40
2007,01,02,04,01,6.40
2007,01,02,04,02,3.20
2007,01,02,04,03,6.40
2007,01,02,04,04,6.40
2007,01,02,04,05,6.40
2007,01,02,04,06,3.20
2007,01,02,04,07,3.20
2007,01,02,04,08,8.10
2007,01,02,04,09,9.60
2007,01,02,04,10,11.30
2007,01,02,04,11,4.80
2007,01,02,04,12,1.60
2007,01,02,04,13,3.20
2007,01,02,04,14,4.80
2007,01,02,04,15,6.40
2007,01,02,04,16,8.10
2007,01,02,04,17,8.10
2007,01,02,04,18,4.80
2007,01,02,04,19,3.20
2007,01,02,04,20,3.20
2007,01,02,04,21,4.80
2007,01,02,04,22,3.20
2007,01,02,04,23,4.80
2007,01,02,04,24,3.20
2007,01,02,04,25,3.20
2007,01,02,04,26,3.20
2007,01,02,04,27,1.60
2007,01,02,04,28,3.20
2007,01,02,04,29,3.20
2007,01,02,04,30,1.60
2007,01,02,04,31,1.60
2007,01,02,04,32,3.20
2007,01,02,04,33,4.80
2007,01,02,04,34,4.80
2007,01,02,04,35,6.40
2007,01,02,04,36,4.80
2007,01,02,04,37,4.80
2007,01,02,04,38,3.20
2007,01,02,04,39,0.00
2007,01,02,04,40,3.20
2007,01,02,04,41,4.80
2007,01,02,04,42,0.00
2007,01,02,04,43,1.60
2007,01,02,04,44,4.80
2007,01,02,04,45,4.80
2007,01,02,04,46,4.80
2007,01,02,04,47,6.40
2007,01,02,04,48,8.10
2007,01,02,04,49,11.30
2007,01,02,04,50,19.30
2007,01,02,04,51,17.70
2007,01,02,04,52,19.30
2007,01,02,04,53,20.90
2007,01,02,04,54,9.60
2007,01,02,04,55,6.40
2007,01,02,04,56,8.10
2007,01,02,04,57,8.10
2007,01,02,04,58,11.30
2007,01,02,04,59,4.80
2007,01,02,05,00,8.10
2007,01,02,05,01,4.80
2007,01,02,05,02,1.60
2007,01,02,05,03,1.60
2007,01,02,05,04,1.60
2007,01,02,05,05,8.10
2007,01,02,05,06,8.10
2007,01,02,05,07,4.80
2007,01,02,05,08,3.20
2007,01,02,05,09,1.60
2007,01,02,05,10,3.20
2007,01,02,05,11,3.20
2007,01,02,05,12,1.60
2007,01,02,05,13,0.00
2007,01,02,05,14,0.00
2007,01,02,05,15,0.00
2007,01,02,05,16,0.00
2007,01,02,05,17,0.00
2007,01,02,05,18,0.00
2007,01,02,05,19,0.00
2007,01,02,05,20,0.00
2007,01,02,05,21,0.00
2007,01,02,05,22,0.00
2007,01,02,05,23,0.00
2007,01,02,05,24,0.00
2007,01,02,05,25,0.00
2007,01,02,05,26,0.00
2007,01,02,05,27,0.00
2007,01,02,05,28,3.20
2007,01,02,05,29,3.20
2007,01,02,05,30,3.20
2007,01,02,05,31,4.80
2007,01,02,05,32,6.40
2007,01,02,05,33,4.80
2007,01,02,05,34,3.20
2007,01,02,05,35,3.20
2007,01,02,05,36,3.20
2007,01,02,05,37,1.60
2007,01,02,05,38,0.00
2007,01,02,05,39,4.80
2007,01,02,05,40,3.20
2007,01,02,05,41,3.20
2007,01,02,05,42,0.00
2007,01,02,05,43,0.00
2007,01,02,05,44,1.60
2007,01,02,05,45,0.00
2007,01,02,05,46,0.00
2007,01,02,05,47,0.00
2007,01,02,05,48,1.60
2007,01,02,05,49,1.60
2007,01,02,05,50,1.60
2007,01,02,05,51,3.20
2007,01,02,05,52,4.80
2007,01,02,05,53,3.20
2007,01,02,05,54,3.20
2007,01,02,05,55,3.20
2007,01,02,05,56,3.20
2007,01,02,05,57,11.30
2007,01,02,05,58,3.20
2007,01,02,05,59,9.60
2007,01,02,06,00,6.40
2007,01,02,06,01,3.20
2007,01,02,06,02,1.60
2007,01,02,06,03,1.60
2007,01,02,06,04,1.60
2007,01,02,06,05,0.00
2007,01,02,06,06,1.60
2007,01,02,06,07,1.60
2007,01,02,06,08,4.80
2007,01,02,06,09,6.40
2007,01,02,06,10,6.40
2007,01,02,06,11,9.60
2007,01,02,06,12,6.40
2007,01,02,06,13,3.20
2007,01,02,06,14,0.00
2007,01,02,06,15,1.60
2007,01,02,06,16,4.80
2007,01,02,06,17,4.80
2007,01,02,06,18,1.60
2007,01,02,06,19,3.20
2007,01,02,06,20,3.20
2007,01,02,06,21,1.60
2007,01,02,06,22,0.00
2007,01,02,06,23,3.20
2007,01,02,06,24,4.80
2007,01,02,06,25,4.80
2007,01,02,06,26,6.40
2007,01,02,06,27,4.80
2007,01,02,06,28,4.80
2007,01,02,06,29,4.80
2007,01,02,06,30,3.20
2007,01,02,06,31,4.80
2007,01,02,06,32,4.80
2007,01,02,06,33,4.80
2007,01,02,06,34,4.80
2007,01,02,06,35,4.80
2007,01,02,06,36,3.20
2007,01,02,06,37,0.00
2007,01,02,06,38,1.60
2007,01,02,06,39,3.20
2007,01,02,06,40,4.80
2007,01,02,06,41,3.20
2007,01,02,06,42,3.20
2007,01,02,06,43,1.60
2007,01,02,06,44,1.60
2007,01,02,06,45,3.20
2007,01,02,06,46,3.20
2007,01,02,06,47,3.20
2007,01,02,06,48,4.80
2007,01,02,06,49,3.20
2007,01,02,06,50,1.60
2007,01,02,06,51,3.20
2007,01,02,06,52,6.40
2007,01,02,06,53,6.40
2007,01,02,06,54,6.40
2007,01,02,06,55,6.40
2007,01,02,06,56,9.60
2007,01,02,06,57,4.80
2007,01,02,06,58,0.00
2007,01,02,06,59,4.80
2007,01,02,07,00,3.20
2007,01,02,07,01,3.20
2007,01,02,07,02,3.20
2007,01,02,07,03,4.80
2007,01,02,07,04,3.20
2007,01,02,07,05,0.00
2007,01,02,07,06,0.00
2007,01,02,07,07,4.80
2007,01,02,07,08,3.20
2007,01,02,07,09,3.20
2007,01,02,07,10,6.40
2007,01,02,07,11,6.40
2007,01,02,07,12,3.20
2007,01,02,07,13,0.00
2007,01,02,07,14,0.00
2007,01,02,07,15,1.60
2007,01,02,07,16,0.00
2007,01,02,07,17,0.00
2007,01,02,07,18,4.80
2007,01,02,07,19,6.40
2007,01,02,07,20,4.80
2007,01,02,07,21,4.80
2007,01,02,07,22,1.60
2007,01,02,07,23,1.60
2007,01,02,07,24,3.20
2007,01,02,07,25,1.60
2007,01,02,07,26,1.60
2007,01,02,07,27,1.60
2007,01,02,07,28,3.20
2007,01,02,07,29,3.20
2007,01,02,07,30,3.20
2007,01,02,07,31,3.20
2007,01,02,07,32,1.60
2007,01,02,07,33,3.20
2007,01,02,07,34,4.80
2007,01,02,07,35,3.20
2007,01,02,07,36,3.20
2007,01,02,07,37,3.20
2007,01,02,07,38,1.60
2007,01,02,07,39,1.60
2007,01,02,07,40,3.20
2007,01,02,07,41,1.60
2007,01,02,07,42,0.00
2007,01,02,07,43,0.00
2007,01,02,07,44,3.20
2007,01,02,07,45,6.40
2007,01,02,07,46,8.10
2007,01,02,07,47,8.10
2007,01,02,07,48,8.10
2007,01,02,07,49,9.60
2007,01,02,07,50,8.10
2007,01,02,07,51,6.40
2007,01,02,07,52,4.80
2007,01,02,07,53,1.60
2007,01,02,07,54,0.00
2007,01,02,07,55,1.60
2007,01,02,07,56,1.60
2007,01,02,07,57,0.00
2007,01,02,07,58,3.20
2007,01,02,07,59,4.80
2007,01,02,08,00,3.20
2007,01,02,08,01,3.20
2007,01,02,08,02,1.60
2007,01,02,08,03,0.00
2007,01,02,08,04,0.00
2007,01,02,08,05,0.00
2007,01,02,08,06,3.20
2007,01,02,08,07,3.20
2007,01,02,08,08,3.20
2007,01,02,08,09,3.20
2007,01,02,08,10,4.80
2007,01,02,08,11,6.40
2007,01,02,08,12,4.80
2007,01,02,08,13,4.80
2007,01,02,08,14,3.20
2007,01,02,08,15,1.60
2007,01,02,08,16,3.20
2007,01,02,08,17,3.20
2007,01,02,08,18,3.20
2007,01,02,08,19,3.20
2007,01,02,08,20,3.20
2007,01,02,08,21,3.20
2007,01,02,08,22,3.20
2007,01,02,08,23,4.80
2007,01,02,08,24,9.60
2007,01,02,08,25,14.50
2007,01,02,08,26,14.50
2007,01,02,08,27,6.40
2007,01,02,08,28,8.10
2007,01,02,08,29,6.40
2007,01,02,08,30,11.30
2007,01,02,08,31,17.70
2007,01,02,08,32,20.90
2007,01,02,08,33,17.70
2007,01,02,08,34,11.30
2007,01,02,08,35,8.10
2007,01,02,08,36,4.80
2007,01,02,08,37,8.10
2007,01,02,08,38,6.40
2007,01,02,08,39,3.20
2007,01,02,08,40,3.20
2007,01,02,08,41,6.40
2007,01,02,08,42,6.40
2007,01,02,08,43,6.40
2007,01,02,08,44,6.40
2007,01,02,08,45,6.40
2007,01,02,08,46,16.10
2007,01,02,08,47,17.70
2007,01,02,08,48,11.30
2007,01,02,08,49,1.60
2007,01,02,08,50,8.10
2007,01,02,08,51,6.40
2007,01,02,08,52,4.80
2007,01,02,08,53,6.40
2007,01,02,08,54,11.30
2007,01,02,08,55,8.10
2007,01,02,08,56,8.10
2007,01,02,08,57,4.80
2007,01,02,08,58,0.00
2007,01,02,08,59,1.60
2007,01,02,09,00,3.20
2007,01,02,09,01,1.60
2007,01,02,09,02,3.20
2007,01,02,09,03,3.20
2007,01,02,09,04,4.80
2007,01,02,09,05,6.40
2007,01,02,09,06,4.80
2007,01,02,09,07,4.80
2007,01,02,09,08,4.80
2007,01,02,09,09,4.80
2007,01,02,09,10,6.40
2007,01,02,09,11,6.40
2007,01,02,09,12,8.10
2007,01,02,09,13,9.60
2007,01,02,09,14,6.40
2007,01,02,09,15,6.40
2007,01,02,09,16,9.60
2007,01,02,09,17,12.90
2007,01,02,09,18,20.90
2007,01,02,09,19,14.50
2007,01,02,09,20,8.10
2007,01,02,09,21,8.10
2007,01,02,09,22,19.30
2007,01,02,09,23,17.70
2007,01,02,09,24,14.50
2007,01,02,09,25,16.10
2007,01,02,09,26,9.60
2007,01,02,09,27,6.40
2007,01,02,09,28,8.10
2007,01,02,09,29,17.70
2007,01,02,09,30,9.60
2007,01,02,09,31,9.60
2007,01,02,09,32,11.30
2007,01,02,09,33,11.30
2007,01,02,09,34,4.80
2007,01,02,09,35,8.10
2007,01,02,09,36,6.40
2007,01,02,09,37,8.10
2007,01,02,09,38,6.40
2007,01,02,09,39,9.60
2007,01,02,09,40,8.10
2007,01,02,09,41,9.60
2007,01,02,09,42,11.30
2007,01,02,09,43,8.10
2007,01,02,09,44,11.30
2007,01,02,09,45,9.60
2007,01,02,09,46,8.10
2007,01,02,09,47,8.10
2007,01,02,09,48,9.60
2007,01,02,09,49,9.60
2007,01,02,09,50,9.60
2007,01,02,09,51,6.40
2007,01,02,09,52,11.30
2007,01,02,09,53,8.10
2007,01,02,09,54,9.60
2007,01,02,09,55,6.40
2007,01,02,09,56,8.10
2007,01,02,09,57,8.10
2007,01,02,09,58,6.40
2007,01,02,09,59,11.30
2007,01,02,10,00,8.10
2007,01,02,10,01,8.10
2007,01,02,10,02,11.30
2007,01,02,10,03,11.30
2007,01,02,10,04,14.50
2007,01,02,10,05,16.10
2007,01,02,10,06,14.50
2007,01,02,10,07,11.30
2007,01,02,10,08,6.40
2007,01,02,10,09,11.30
2007,01,02,10,10,6.40
2007,01,02,10,11,17.70
2007,01,02,10,12,20.90
2007,01,02,10,13,9.60
2007,01,02,10,14,16.10
2007,01,02,10,15,19.30
2007,01,02,10,16,14.50
2007,01,02,10,17,22.50
2007,01,02,10,18,17.70
2007,01,02,10,19,19.30
2007,01,02,10,20,11.30
2007,01,02,10,21,11.30
2007,01,02,10,22,16.10
2007,01,02,10,23,17.70
2007,01,02,10,24,14.50
2007,01,02,10,25,14.50
2007,01,02,10,26,9.60
2007,01,02,10,27,11.30
2007,01,02,10,28,20.90
2007,01,02,10,29,19.30
2007,01,02,10,30,9.60
2007,01,02,10,31,11.30
2007,01,02,10,32,11.30
2007,01,02,10,33,35.40
2007,01,02,10,34,38.60
2007,01,02,10,35,22.50
2007,01,02,10,36,16.10
2007,01,02,10,37,19.30
2007,01,02,10,38,33.80
2007,01,02,10,39,33.80
2007,01,02,10,40,43.50
2007,01,02,10,41,29.00
2007,01,02,10,42,27.40
2007,01,02,10,43,45.10
2007,01,02,10,44,43.50
2007,01,02,10,45,41.80
2007,01,02,10,46,46.70
2007,01,02,10,47,48.30
2007,01,02,10,48,43.50
2007,01,02,10,49,53.10
2007,01,02,10,50,37.00
2007,01,02,10,51,37.00
2007,01,02,10,52,41.80
2007,01,02,10,53,33.80
2007,01,02,10,54,37.00
2007,01,02,10,55,51.50
2007,01,02,10,56,49.90
2007,01,02,10,57,45.10
2007,01,02,10,58,33.80
2007,01,02,10,59,29.00
2007,01,02,11,00,37.00
2007,01,02,11,01,32.20
2007,01,02,11,02,45.10
2007,01,02,11,03,30.60
2007,01,02,11,04,30.60
2007,01,02,11,05,30.60
2007,01,02,11,06,35.40
2007,01,02,11,07,49.90
2007,01,02,11,08,43.50
2007,01,02,11,09,35.40
2007,01,02,11,10,35.40
2007,01,02,11,11,35.40
2007,01,02,11,12,35.40
2007,01,02,11,13,35.40
2007,01,02,11,14,40.20
2007,01,02,11,15,29.00
2007,01,02,11,16,40.20
2007,01,02,11,17,30.60
2007,01,02,11,18,35.40
2007,01,02,11,19,30.60
2007,01,02,11,20,35.40
2007,01,02,11,21,32.20
2007,01,02,11,22,30.60
2007,01,02,11,23,38.60
2007,01,02,11,24,29.00
2007,01,02,11,25,32.20
2007,01,02,11,26,24.20
2007,01,02,11,27,43.50
2007,01,02,11,28,37.00
2007,01,02,11,29,43.50
2007,01,02,11,30,43.50
2007,01,02,11,31,29.00
2007,01,02,11,32,32.20
2007,01,02,11,33,40.20
2007,01,02,11,34,38.60
2007,01,02,11,35,35.40
2007,01,02,11,36,30.60
2007,01,02,11,37,33.80
2007,01,02,11,38,43.50
2007,01,02,11,39,35.40
2007,01,02,11,40,40.20
2007,01,02,11,41,38.60
2007,01,02,11,42,27.40
2007,01,02,11,43,29.00
2007,01,02,11,44,29.00
2007,01,02,11,45,22.50
2007,01,02,11,46,33.80
2007,01,02,11,47,29.00
2007,01,02,11,48,40.20
2007,01,02,11,49,41.80
2007,01,02,11,50,38.60
2007,01,02,11,51,27.40
2007,01,02,11,52,35.40
2007,01,02,11,53,38.60
2007,01,02,11,54,35.40
2007,01,02,11,55,32.20
2007,01,02,11,56,29.00
2007,01,02,11,57,24.20
2007,01,02,11,58,25.70
2007,01,02,11,59,22.50
2007,01,02,12,00,22.50
2007,01,02,12,01,20.90
2007,01,02,12,02,32.20
2007,01,02,12,03,27.40
2007,01,02,12,04,19.30
2007,01,02,12,05,43.50
2007,01,02,12,06,40.20
2007,01,02,12,07,19.30
2007,01,02,12,08,27.40
2007,01,02,12,09,24.20
2007,01,02,12,10,24.20
2007,01,02,12,11,24.20
2007,01,02,12,12,20.90
2007,01,02,12,13,22.50
2007,01,02,12,14,37.00
2007,01,02,12,15,24.20
2007,01,02,12,16,27.40
2007,01,02,12,17,27.40
2007,01,02,12,18,24.20
2007,01,02,12,19,27.40
2007,01,02,12,20,43.50
2007,01,02,12,21,49.90
2007,01,02,12,22,30.60
2007,01,02,12,23,32.20
2007,01,02,12,24,24.20
2007,01,02,12,25,24.20
2007,01,02,12,26,41.80
2007,01,02,12,27,46.70
2007,01,02,12,28,32.20
2007,01,02,12,29,49.90
2007,01,02,12,30,37.00
2007,01,02,12,31,33.80
2007,01,02,12,32,32.20
2007,01,02,12,33,24.20
2007,01,02,12,34,41.80
2007,01,02,12,35,41.80
2007,01,02,12,36,41.80
2007,01,02,12,37,45.10
2007,01,02,12,38,43.50
2007,01,02,12,39,25.70
2007,01,02,12,40,46.70
2007,01,02,12,41,46.70
2007,01,02,12,42,49.90
2007,01,02,12,43,48.30
2007,01,02,12,44,37.00
2007,01,02,12,45,30.60
2007,01,02,12,46,40.20
2007,01,02,12,47,37.00
2007,01,02,12,48,43.50
2007,01,02,12,49,51.50
2007,01,02,12,50,57.90
2007,01,02,12,51,37.00
2007,01,02,12,52,38.60
2007,01,02,12,53,49.90
2007,01,02,12,54,35.40
2007,01,02,12,55,37.00
2007,01,02,12,56,49.90
2007,01,02,12,57,46.70
2007,01,02,12,58,43.50
2007,01,02,12,59,22.50
2007,01,02,13,00,22.50
2007,01,02,13,01,43.50
2007,01,02,13,02,38.60
2007,01,02,13,03,45.10
2007,01,02,13,04,37.00
2007,01,02,13,05,27.40
2007,01,02,13,06,30.60
2007,01,02,13,07,38.60
2007,01,02,13,08,41.80
2007,01,02,13,09,29.00
2007,01,02,13,10,25.70
2007,01,02,13,11,35.40
2007,01,02,13,12,38.60
2007,01,02,13,13,27.40
2007,01,02,13,14,29.00
2007,01,02,13,15,33.80
2007,01,02,13,16,33.80
2007,01,02,13,17,38.60
2007,01,02,13,18,38.60
2007,01,02,13,19,33.80
2007,01,02,13,20,33.80
2007,01,02,13,21,38.60
2007,01,02,13,22,30.60
2007,01,02,13,23,38.60
2007,01,02,13,24,43.50
2007,01,02,13,25,33.80
2007,01,02,13,26,37.00
2007,01,02,13,27,25.70
2007,01,02,13,28,33.80
2007,01,02,13,29,27.40
2007,01,02,13,30,32.20
2007,01,02,13,31,33.80
2007,01,02,13,32,29.00
2007,01,02,13,33,25.70
2007,01,02,13,34,32.20
2007,01,02,13,35,29.00
2007,01,02,13,36,33.80
2007,01,02,13,37,33.80
2007,01,02,13,38,27.40
2007,01,02,13,39,29.00
2007,01,02,13,40,24.20
2007,01,02,13,41,17.70
2007,01,02,13,42,33.80
2007,01,02,13,43,30.60
2007,01,02,13,44,33.80
2007,01,02,13,45,29.00
2007,01,02,13,46,45.10
2007,01,02,13,47,38.60
2007,01,02,13,48,27.40
2007,01,02,13,49,48.30
2007,01,02,13,50,41.80
2007,01,02,13,51,38.60
2007,01,02,13,52,35.40
2007,01,02,13,53,29.00
2007,01,02,13,54,41.80
2007,01,02,13,55,49.90
2007,01,02,13,56,43.50
2007,01,02,13,57,43.50
2007,01,02,13,58,29.00
2007,01,02,13,59,38.60
2007,01,02,14,00,45.10
2007,01,02,14,01,32.20
2007,01,02,14,02,37.00
2007,01,02,14,03,49.90
2007,01,02,14,04,29.00
2007,01,02,14,05,43.50
2007,01,02,14,06,35.40
2007,01,02,14,07,33.80
2007,01,02,14,08,38.60
2007,01,02,14,09,43.50
2007,01,02,14,10,35.40
2007,01,02,14,11,35.40
2007,01,02,14,12,35.40
2007,01,02,14,13,29.00
2007,01,02,14,14,46.70
2007,01,02,14,15,40.20
2007,01,02,14,16,33.80
2007,01,02,14,17,45.10
2007,01,02,14,18,32.20
2007,01,02,14,19,30.60
2007,01,02,14,20,30.60
2007,01,02,14,21,32.20
2007,01,02,14,22,32.20
2007,01,02,14,23,33.80
2007,01,02,14,24,33.80
2007,01,02,14,25,35.40
2007,01,02,14,26,35.40
2007,01,02,14,27,35.40
2007,01,02,14,28,33.80
2007,01,02,14,29,49.90
2007,01,02,14,30,27.40
2007,01,02,14,31,30.60
2007,01,02,14,32,40.20
2007,01,02,14,33,38.60
2007,01,02,14,34,32.20
2007,01,02,14,35,51.50
2007,01,02,14,36,53.10
2007,01,02,14,37,53.10
2007,01,02,14,38,25.70
2007,01,02,14,39,38.60
2007,01,02,14,40,33.80
2007,01,02,14,41,29.00
2007,01,02,14,42,30.60
2007,01,02,14,43,37.00
2007,01,02,14,44,29.00
2007,01,02,14,45,29.00
2007,01,02,14,46,32.20
2007,01,02,14,47,32.20
2007,01,02,14,48,25.70
2007,01,02,14,49,37.00
2007,01,02,14,50,30.60
2007,01,02,14,51,45.10
2007,01,02,14,52,45.10
2007,01,02,14,53,48.30
2007,01,02,14,54,38.60
2007,01,02,14,55,22.50
2007,01,02,14,56,35.40
2007,01,02,14,57,41.80
2007,01,02,14,58,20.90
2007,01,02,14,59,14.50
2007,01,02,15,00,32.20
2007,01,02,15,01,25.70
2007,01,02,15,02,45.10
2007,01,02,15,03,29.00
2007,01,02,15,04,35.40
2007,01,02,15,05,30.60
2007,01,02,15,06,30.60
2007,01,02,15,07,29.00
2007,01,02,15,08,25.70
2007,01,02,15,09,43.50
2007,01,02,15,10,37.00
2007,01,02,15,11,27.40
2007,01,02,15,12,35.40
2007,01,02,15,13,40.20
2007,01,02,15,14,30.60
2007,01,02,15,15,25.70
2007,01,02,15,16,30.60
2007,01,02,15,17,41.80
2007,01,02,15,18,41.80
2007,01,02,15,19,32.20
2007,01,02,15,20,30.60
2007,01,02,15,21,30.60
2007,01,02,15,22,20.90
2007,01,02,15,23,29.00
2007,01,02,15,24,43.50
2007,01,02,15,25,32.20
2007,01,02,15,26,27.40
2007,01,02,15,27,24.20
2007,01,02,15,28,19.30
2007,01,02,15,29,25.70
2007,01,02,15,30,24.20
2007,01,02,15,31,33.80
2007,01,02,15,32,32.20
2007,01,02,15,33,25.70
2007,01,02,15,34,27.40
2007,01,02,15,35,30.60
2007,01,02,15,36,30.60
2007,01,02,15,37,35.40
2007,01,02,15,38,27.40
2007,01,02,15,39,33.80
2007,01,02,15,40,30.60
2007,01,02,15,41,24.20
2007,01,02,15,42,20.90
2007,01,02,15,43,19.30
2007,01,02,15,44,38.60
2007,01,02,15,45,30.60
2007,01,02,15,46,29.00
2007,01,02,15,47,25.70
2007,01,02,15,48,32.20
2007,01,02,15,49,33.80
2007,01,02,15,50,40.20
2007,01,02,15,51,32.20
2007,01,02,15,52,37.00
2007,01,02,15,53,38.60
2007,01,02,15,54,27.40
2007,01,02,15,55,32.20
2007,01,02,15,56,35.40
2007,01,02,15,57,32.20
2007,01,02,15,58,43.50
2007,01,02,15,59,40.20
2007,01,02,16,00,35.40
2007,01,02,16,01,43.50
2007,01,02,16,02,35.40
2007,01,02,16,03,27.40
2007,01,02,16,04,41.80
2007,01,02,16,05,33.80
2007,01,02,16,06,32.20
2007,01,02,16,07,37.00
2007,01,02,16,08,35.40
2007,01,02,16,09,30.60
2007,01,02,16,10,29.00
2007,01,02,16,11,35.40
2007,01,02,16,12,32.20
2007,01,02,16,13,32.20
2007,01,02,16,14,27.40
2007,01,02,16,15,24.20
2007,01,02,16,16,24.20
2007,01,02,16,17,30.60
2007,01,02,16,18,25.70
2007,01,02,16,19,22.50
2007,01,02,16,20,32.20
2007,01,02,16,21,33.80
2007,01,02,16,22,27.40
2007,01,02,16,23,27.40
2007,01,02,16,24,27.40
2007,01,02,16,25,35.40
2007,01,02,16,26,35.40
2007,01,02,16,27,29.00
2007,01,02,16,28,29.00
2007,01,02,16,29,25.70
2007,01,02,16,30,29.00
2007,01,02,16,31,40.20
2007,01,02,16,32,29.00
2007,01,02,16,33,27.40
2007,01,02,16,34,25.70
2007,01,02,16,35,20.90
2007,01,02,16,36,30.60
2007,01,02,16,37,27.40
2007,01,02,16,38,30.60
2007,01,02,16,39,33.80
2007,01,02,16,40,32.20
2007,01,02,16,41,33.80
2007,01,02,16,42,37.00
2007,01,02,16,43,30.60
2007,01,02,16,44,27.40
2007,01,02,16,45,24.20
2007,01,02,16,46,20.90
2007,01,02,16,47,33.80
2007,01,02,16,48,33.80
2007,01,02,16,49,29.00
2007,01,02,16,50,30.60
2007,01,02,16,51,19.30
2007,01,02,16,52,27.40
2007,01,02,16,53,30.60
2007,01,02,16,54,32.20
2007,01,02,16,55,30.60
2007,01,02,16,56,45.10
2007,01,02,16,57,40.20
2007,01,02,16,58,41.80
2007,01,02,16,59,33.80
2007,01,02,17,00,30.60
2007,01,02,17,01,20.90
2007,01,02,17,02,32.20
2007,01,02,17,03,29.00
2007,01,02,17,04,27.40
2007,01,02,17,05,33.80
2007,01,02,17,06,27.40
2007,01,02,17,07,27.40
2007,01,02,17,08,30.60
2007,01,02,17,09,35.40
2007,01,02,17,10,35.40
2007,01,02,17,11,30.60
2007,01,02,17,12,25.70
2007,01,02,17,13,30.60
2007,01,02,17,14,30.60
2007,01,02,17,15,22.50
2007,01,02,17,16,25.70
2007,01,02,17,17,38.60
2007,01,02,17,18,43.50
2007,01,02,17,19,25.70
2007,01,02,17,20,22.50
2007,01,02,17,21,19.30
2007,01,02,17,22,30.60
2007,01,02,17,23,29.00
2007,01,02,17,24,20.90
2007,01,02,17,25,30.60
2007,01,02,17,26,33.80
2007,01,02,17,27,29.00
2007,01,02,17,28,25.70
2007,01,02,17,29,17.70
2007,01,02,17,30,11.30
2007,01,02,17,31,11.30
2007,01,02,17,32,25.70
2007,01,02,17,33,33.80
2007,01,02,17,34,25.70
2007,01,02,17,35,20.90
2007,01,02,17,36,32.20
2007,01,02,17,37,43.50
2007,01,02,17,38,32.20
2007,01,02,17,39,30.60
2007,01,02,17,40,25.70
2007,01,02,17,41,38.60
2007,01,02,17,42,37.00
2007,01,02,17,43,30.60
2007,01,02,17,44,30.60